OpenBCM V1.13 (Linux)

Packet Radio Mailbox

DB0FHN

[JN59NK Nuernberg]

 Login: GUEST





  
I6KZR  > KEPLER   26.02.03 23:53l 308 Lines 15405 Bytes #999 (0) @ WW
BID : 25791_IK6WID
Read: DB0FHN GUEST
Subj: 2L Keplerian Elements #057
Path: DB0FHN<DB0RGB<DB0MRW<DB0HOT<DB0ZWI<DB0HST<ON0DXC<ON0RAT<ON5VL<ON0BEL<
      IK6PYS<IK6PYS<I6ZLO<IK6WID
Sent: 030226/2136Z @:IK6WID.#AP.IMAR.ITA.EU #:25791 [MONTE URANO]  FBB7.00i
From: I6KZR@IK6WID.#AP.IMAR.ITA.EU
To  : KEPLER@WW


OSCAR 7
1 07530U 74089B   03055.67718673 -.00000029 +00000-0 +10000-3 0 01775
2 07530 101.7600 103.4074 0012194 067.7090 292.5272 12.53564503293958
GOES 2
1 10061U 77048A   03051.70332233 -.00000279  00000-0  00000+0 0   940
2 10061  14.1349  13.4071 0012974 200.0160 159.9586  0.99400653 38853
GOES 3
1 10953U 78062A   03054.91954579 -.00000109  00000-0  00000+0 0  9330
2 10953  13.4124  17.1909 0005727 342.4283  17.5671  1.00279346 43555
GOES 6
1 14050U 83041A   03053.03607911 +.00000030 +00000-0 +10000-3 0 04288
2 14050 010.4089 035.5299 0004291 343.7591 016.2875 01.00303949130670
OSCAR 10
1 14129U 83058B   03053.29347507 -.00000135 +00000-0 +10000-3 0 09207
2 14129 025.9661 163.6642 6025305 329.8586 006.1874 02.05867335120141
OSCAR 11 (UoSAT 2)
1 14781U 84021B   03056.85512603  .00000986  00000-0  14394-3 0   808
2 14781  98.1192  30.8354 0009223 179.9237 180.1975 14.78016956 17310
NOAA 10
1 16969U 86073A   03056.91029180  .00000101  00000-0  59592-4 0  6745
2 16969  98.7307  51.0054 0013464  67.3513 292.9092 14.27066745854951
GOES 7
1 17561U 87022A   03057.35531376  .00000028  00000-0  10000-3 0  8664
2 17561   7.6162  55.4995 0005433 264.6244 144.COSMOS 1861
1 18129U 87054A   03057.23707055  .00000065  00000-0  54910-4 0  2042
2 18129  82.9277 140.8926 0010481 199.7984 160.2747 13.72701710785566
EUTELSAT 1-F4 (ECS 4)
1 18351U 87078B   03051.98344187 -.00000038  00000-0  00000+0 0   421
2 18351   7.2019  58.6515 0006906 200.6778 159.4474  0.98687085 42708
NOAA 11
1 19531U 88089A   03056.86805867  .00000155  00000-0  10396-3 0  5128
2 19531  98.8996 138.2262 0011731 178.0738 182.0480 14.14541293743833
ASTRA 1A
1 19688U 88109B   03057.11655939  .00000018  00000-0  10000-3 0  5812
2 19688   1.4135  94.9473 0004758 241.3274 226.4073  1.00273104 32277
OSCAR 14 (UOSAT 3)
1 20437U 90005B   03057.18882078  .00000090  00000-0  49605-4 0  1738
2 20437  98.2694OSCAR 15 (UOSAT 4)
1 20438U 90005C   03055.60485129 +.00000079 +00000-0 +46101-4 0 07809
2 20438 098.2460 088.0239 0009422 190.9510 169.1469 14.30199844683028
OSCAR 16 (PACSAT)
1 20439U 90005D   03055.73460780  .00000085  00000-0  47680-4 0  8564
2 20439  98.3159 110.7730 0010612 186.0232 174.0809 14.31474200683413
OSCAR 17 (DOVE)
1 20440U 90005E   03055.72232589 +.00000171 +00000-0 +79510-4 0 07370
2 20440 098.3369 114.6695 0010601 184.8157 175.2929 14.31753132683488
OSCAR 18 (WEBERSAT)
1 20441U 90005F   03056.55378521  .00000114  00000-0  58474-4 0   208
2 20441  98.3325 114.6734 0011373 183.6326 176.4777 14.31556381683589
OSCAR 19 (LUSAT)
1 20442U 90005G   03056.25186524  .00000145  00000-0  69878-4 0  9715
2 20442  98.3446 117.4192 0011618 183.6820 176.4277 14.31719807683594
JAS 1B (FUJI 2)
1 20480U 90013C   03056.95165530 -.00000041  00000-0 -16725-4 0  4655
2 20480  99.0475  18.3061 0540640 347.1753  11.6039 12.83330063611465
HST
1 20580U 90037B   03057.22638598  .00001604  00000-0  11975-3 0  3409
2 20580  28.4694 348.3296 0003780 353.3806 132.5927 14.97848056503785
EUTELSAT 2-F1
1 20777U 90079B   03055.75572645 -.00000111  00000-0  10000-3 0   373
2 20777   3.5162  84.4956 0002215 310.2513 107.4540  1.00270552 26161
FENGYUN 1B
1 20788U 90081A   03056.52692527  .00000052  00000-0  63175-4 0  8908
2 20788  99.0268  38.6386 0015570 208.8358 151.1948 14.02136169638512
EUTELSAT 2-F2
1 21056U 91003B   03056.68610164  .00000106  00000-0  10000-3 0  6205
2 21056   2.7458  87.8861 0003103 262.5197 100.1165  1.00270040 31955
INFORMATOR 1
1 21087U 91006A   03056.18088861  .00000090  00000-0  78712-4 0  6016
2 21087  82.9437 312.5112 0033547 231.3792 128.4359 13.74927443605790
COSMOS 2123
1 21089U 91007A   03057.40304123  .00000065  00000-0  52742-4 0  4933
2 21089  82.9233 175.5676 0027611 265.2170  94.5831 13.74405095604868
ASTRA 1B
1 21139U 91015A   03049.00000000  .00000116  00000-0  10000-3 0  1611
2 21139   0.0122 319.8851 0002995  65.1991 141.6493  1.00273184 32182
METEOSAT 5 (MOP 2)
1 21140U 91015B   03056.76091723  .00000004  00000-0  10000-3 0  7348
2 21140   5.6450  69.8887 0001688 149.9948 272.1376  1.00275798 46123
NOAA 12
1 21263U 91032A   03056.92603809  .00000244  00000-0  12239-3 0  9822
2 21263  98.6272  46.4292 0013235   4.7740 355.3563 14.25086284612260
OSCAR 22 (UoSAT 5)
1 21575U 91050B   03056.52990159  .00000267  00000-0  99233-4 0  7341
2 21575  98.1415  48.3006 0008363 108.6928 251.5170 14.39159592609289
METEOR 3-5
1 21655U 91056A   03057.19536637  .00000051  00000-0  10000-3 0  5025
2 21655  82.5555  33.4705 0012801 175.2920 184.8335 13.16980423554486
UARS
1 21701U 91063B   03056.81321986  .00000444  00000-0  51733-4 0  8334
2 21701  56.9829   2.7273 0004308 111.5656 248.5854 15.02871795626806
EUTELSAT 2-F3
1 21803U 91083A   03051.82541764  .00000124  00000-0  10000-3 0  5246
2 21803   2.6025  89.0644 0003498 285.9590  94.1679  1.00280742 37026
INMARSAT 2-F3
1 21814U 91084B   03056.39025362  .00000097  00000-0  10000-3 0  6225
2 21814   1.7573  58.4504 0002876 283.3625 171.4568  1.00272377 40969
INMARSAT 2-F4
1 21940U 92021B   03055.64438402 -.00000364  00000-0  10000-3 0  5730
2 21940   2.3921  19.1809 0002668 212.0827 263.7763  1.00264880 39743
EUTELSAT 2-F4
1 22028U 92041B   03052.59043583 -.00000106 +00000-0 +10000-3 0 03331
2 22028 001.7240 092.4650 0006109 235.3032 023.5664 01.00271843031804
OSCAR 23 (KITSAT 1)
1 22077U 92052B   03056.87553343 -.00000037  00000-0  10000-3 0  1579
2 22077  66.0868 110.4279 0015661 271.8114  88.1111 12.86408728495241
ASTRA 1C
1 22653U 93031A   03049.00000000  .00000116  00000-0  10000-3 0  7888
2 22653   0.0122 319.8851 0002995  65.1991 141.6099  1.00273184 30881
METEOR 2-21
1 22782U 93055A   03056.69419503  .00000070  00000-0  49903-4 0  5277
2 22782  82.5486 209.2414 0021618 328.8518  31.1347 13.83532599479075
KITSAT B
1 22825U 93061C   03057.24489539  .00000077  00000-0  46673-4 0  4952
2 22825  98.2743  86.5503 0007541 234.2193 125.8289 14.28945574490975
POSAT 1
1 22826U 93061D   03056.64387442  .00000138  00000-0  70626-4 0  3172
2 22826  98.2752  87.1001 0007982 239.0571 120.9832 14.29169104490932
ITAMSAT
1 22828U 93061F   03057.11247183  .00000076  00000-0  45687-4 0  4344
2 22828  98.2711  87.8080 0009163 212.2062 147.8557 14.29510455459200
EYESAT A
1 22829U 93061G   03057.54017765  .00000142  00000-0  71159-4 0  4609
2 22829  98.2717  88.8233 0009059 210.6948 149.3708 14.29772139491195
METEOSAT 6
1 22912U 93073B   03055.96029865  .00000052  00000-0  00000+0 0  6955
2 22912   2.6994  83.1768 0062823 129.9325 297.0259  1.00269714 32361
GOES 8
1 23051U 94022A   03057.2 23051   0.3160 102.7303 0000742 275.7691 130.6108  1.00275039 39883
ASTRA 1D
1 23331U 94070A   03052.80144086  .00000132  00000-0  00000+0 0  8199
2 23331   0.0537 223.1440 0013728 173.9673  66.7649  1.00275913 30900
RADIO ROSTO
1 23439U 94085A   03055.41335031 -.00000040 +00000-0 +63370-4 0 06894
2 23439 064.8161 032.0287 0146717 114.0454 247.5899 11.27547632336257
NOAA 14
1 23455U 94089A   03056.90769279  .00000060  00000-0  56861-4 0  5365
2 23455  99.1868  75.6691 0008788 206.0042 154.0689 14.13299552420517
HIMAWARI 5 (GMS 5)
1 23522U 95011B   03055.46641786 -.00000292  00000-0  00000+0 0  1204
2 23522   1.7782  83.3819 0000739 121.4819 257.1832  1.00275763 28951
HOT BIRD 1
1 23537U 95016B   03054.87288413  .00000076  00000-0  10000-3 0  5379
2 23537   0.1701 291.4887 0007489 355.1418 193.9338  1.00GOES 9
1 23581U 95025A   03055.54810688  .00000104  00000-0  00000+0 0  5319
2 23581   0.2580 277.4942 0011939 247.8299  24.7504  1.00059588 28429
INMARSAT 3-F1
1 23839U 96020A   03056.63885110  .00000001  00000-0  00000+0 0  8773
2 23839   0.0863 318.9468 0015314 243.7967 246.3707  1.00269053 25287
ASTRA 1F
1 23842U 96021A   03049.00000000  .00000116  00000-0  10000-3 0  5609
2 23842   0.0122 319.8851 0002995  65.1991 141.6521  1.00273184 25112
JAS 2
1 24278U 96046B   03055.90199122 -.00000005 +00000-0 +31691-4 0 05732
2 24278 098.5379 206.2630 0350317 199.9725 158.7413 13.52872861322162
UNAMSAT
1 24305U 96052B   03056.55460329  .00000205  00000-0  20364-3 0  6659
2 24305  82.9297 257.6139 0029571 180.9548 179.1545 13.73452570324441
INMARSAT 3-F2
1 24307U 96053A   03056.37332598 -.00000138  00000-0  00000+0 0   851
2 24307   0.0628  10.0341 0005559 345.0428 278.5919  1.00271450 23683
HOT BIRD 2
1 24665U 96067A   03054.87288413  .00000076  00000-0  10000-3 0  3445
2 24665   0.0674 252.7220 0007661  70.4027 157.3662  1.00270188 23318
INMARSAT 3-F3
1 24674U 96070A   03055.60710036  .00000027  00000-0  10000-3 0  9949
2 24674   0.0675 307.1217 0003799   9.4976 234.0207  1.00272448 22647
GOES 10
1 24786U 97019A   03056.29957760  .00000075  00000-0  00000+0 0  5629
2 24786   0.1527 105.3736 0002151 267.8707 114.1479  1.00261657 21407
INMARSAT 3-F4
1 24819U 97027A   03054.31435635 -.00000295  00000-0  10000-3 0  8889
2 24819   0.0432 294.5288 0003935  36.0427 241.3306  1.00267632 21059
FENGYUN 2A
1 24834U 97029A   03056.82802112 -.00000211  00000-0  00000+0 0  9697
2 24834   2.5896  88.3666 0001204 211.4668 239.4223  1.00280151 20910
HOT BIRD 3
1 24931U 97049A   03054.87288413  .00000075  00000-0  10000-3 0  4284
2 24931   0.1004 298.5607 0010424  36.2408 145.6862  1.00270404 20133
METEOSAT 7
1 24932U 97049B   03054.88922228 -.00000008 +00000-0 +00000-0 0 02556
2 24932 000.2213 065.3564 0001145 262.1847 146.6053 01.00280731020076
ASTRA 1G
1 25071U 97076A   03049.00000000  .00000116  00000-0  10000-3 0  3929
2 25071   0.0122 319.8851 0002995  65.1991 141.6317  1.00273184 19136
